Weather in Rozhdestvenka

Russia / Tyumen Oblast     55°42′10″N   69°59′29″E
temp.,
°C
wind,
m/s
gust,
m/s
humid.,
%
clouds,
%
prec.,
mm/h
press.,
hPa
HPBL,
m
25 february, thu
thu2523:00−24wsw12100100 0.7 100925
02:00−20nne4998100 0.3 1010414
05:00−21nne61096100 0.5 1011522
08:00−22n61095100 0.2 1013502
11:00−23n5892100 0.3 1016572
14:00−23nnw5793100 0.0 1018507
17:00−24nw379599 0.1 1021180
20:00−25nw489794 0.0 1024249
26 february, fri
fri2623:00−26wnw379892 0.1 1026143
02:00−28wnw359891 0.0 102793
05:00−30wnw339989 0.1 102935
08:00−31w33988 0.0 103027
11:00−25w349429 0.0 1031262
14:00−22wsw3489100 0.0 1031470
17:00−24sw3396100 0.0 103258
20:00−28sw349840 0.0 103228
27 february, sat
sat2723:00−30sw349920 0.0 103233
02:00−31ssw33999 0.0 103228
05:00−31s33986 0.0 103229
08:00−31s34970 0.0 103154
11:00−25sse35950 0.0 1031233
14:00−22sse479245 0.0 1030322
17:00−23se599230 0.0 1029268
20:00−27se511950 0.0 1027218
28 february, sun
sun2823:00−25se6119640 0.0 1025237
02:00−22se61298100 0.4 1022266
05:00−19se71297100 1.3 1020364
08:00−16se71295100 0.9 1017443
11:00−13se71194100 1.7 1015512
14:00−10se61192100 0.4 1013598
17:00−9ese61092100 0.6 1011505
20:00−10e61194100 0.4 1010357
1 march, mon
mon123:00−10e5995100 1.1 1009299
02:00−10ene4695100 1.4 1008242
05:00−12ne349695 1.9 100996
08:00−14nne239684 0.1 101034
11:00−11n239290 0.1 1010240
14:00−9n3492100 0.2 1011334
17:00−11nnw3495100 0.4 1011149
20:00−16nnw239778 0.0 101220